CAPE
0 0 0 0 0 0 0 0 58 293 394 280 259 440 694 1318 1679 1629 1563 1440 1300 1001 747 809 668 564 446 352 254 165 106 78 104 22 2 4 14 90 51 127 39 243 134
0 0 0 0 0 0 0 0 16 241 324 306 514 773 1323 1763 1742 1626 1525 1188 1003 744 697 647 587 296 243 149 119 153 243 45 65 187 3 1 1 10 2 17 14 141 243
0 0 0 0 0 0 0 0 63 283 391 584 952 1242 1732 1830 1614 1409 1277 886 550 571 463 512 537 348 286 240 221 260 53 8 25 5 1 1 0 2 1 3 8 15 2
0 0 5 51 3 0 2 119 335 508 693 1007 1409 1768 1872 1666 1297 946 749 696 814 632 456 603 362 292 296 256 182 60 5 0 1 9 4 1 0 2 2 0 1 5 1
0 10 191 370 128 7 94 343 630 913 1226 1508 1804 1859 1648 1256 990 984 943 898 965 703 501 448 380 316 193 308 91 26 23 30 3 1 3 2 1 0 1 2 3 1 2
1 263 720 595 240 297 487 864 1241 1507 1583 1670 1692 1570 1289 1081 683 739 822 827 629 538 456 389 327 6 0 0 0 0 63 9 1 2 4 2 3 3 4 3 3 4 3
38 544 1072 752 626 737 940 1202 1299 1294 1397 1469 1352 1206 1158 478 447 415 242 362 266 354 467 458 418 311 109 12 0 0 0 0 20 42 1 0 1 2 2 4 4 4 7
42 865 868 1083 1149 996 1190 1528 1657 1625 1547 1319 1043 930 593 161 17 1 0 215 301 399 370 451 559 533 331 200 5 2 14 12 9 25 115 2 0 0 15 14 4 5 3
89 820 917 1245 1078 1277 1528 1489 1137 819 705 657 567 450 349 2 0 0 37 303 289 173 193 328 460 289 18 1 57 87 84 4 0 0 9 5 0 0 11 7 13 4 2
646 1059 1253 1241 1214 1264 1039 690 506 457 377 274 195 95 0 0 0 0 73 44 3 0 1 0 0 61 0 0 10 70 26 1 4 0 0 0 0 0 0 12 7 3 0
715 1223 1198 1087 911 490 302 139 125 62 18 0 0 0 0 0 0 0 0 8 0 0 5 0 0 0 0 0 11 46 33 1 0 31 3 2 1 0 3 3 14 16 14
614 887 662 435 160 100 70 14 0 0 0 0 0 0 0 0 0 0 0 1 0 23 4 2 0 0 0 0 11 0 0 0 3 2 1 1 2 3 5 25 25 25 26
469 359 235 102 33 0 0 0 0 0 0 0 0 0 0 3 0 0 0 0 1 25 24 0 0 0 0 0 0 0 0 2 3 3 0 0 0 3 7 7 4 0 0
209 179 166 45 8 0 0 0 0 0 0 0 0 1 0 1 2 2 0 0 0 0 0 0 0 0 0 0 0 0 1 0 0 0 1 2 3 2 3 4 1 2 4
155 106 34 14 1 0 1 6 9 13 2 0 0 0 0 1 4 2 1 0 0 0 0 2 2 0 0 1 5 2 2 4 1 2 3 2 3 2 3 3 5 4 3
5 1 1 0 0 0 1 0 0 0 0 0 0 1 0 0 0 0 0 0 0 0 0 1 0 0 0 0 3 3 3 2 3 2 3 2 1 3 1 2 6 2 4
0 0 0 0 0 1 0 0 0 0 0 0 0 0 0 0 0 0 0 0 0 1 0 1 0 1 1 1 1 1 1 1 3 2 2 2 2 1 0 1 0 2 1
0 0 1 1 5 9 8 1 0 0 0 0 0 0 0 0 0 0 0 0 1 0 0 0 2 3 3 2 0 0 1 1 2 2 4 3 2 0 1 1 1 10 31
29 12 3 7 18 9 1 2 2 1 0 0 0 0 0 0 0 0 0 1 1 1 1 0 8 5 2 0 0 6 2 13 16 18 16 2 2 1 0 0 0 0 0
12 4 14 9 8 4 1 2 1 2 2 3 2 0 0 2 3 1 0 2 5 2 2 3 1 0 1 10 13 6 2 0 2 3 0 0 0 0 0 0 2 6 20
0 7 1 0 0 1 2 2 3 2 3 2 2 0 0 0 0 0 0 0 1 0 0 0 0 0 0 10 6 4 0 8 0 0 0 0 0 0 2 11 65 75 73
0 0 0 1 1 2 3 3 2 1 2 2 0 0 0 2 4 4 5 8 8 7 7 5 1 2 2 0 0 0 5 6 12 1 1 10 5 24 61 72 70 96 112
2 0 2 3 1 2 2 2 1 0 2 2 2 0 0 2 5 8 5 3 4 2 1 0 0 1 3 4 3 2 2 2 2 12 52 68 24 13 19 14 16 6 0
3 3 2 2 3 2 2 3 2 1 1 1 0 1 2 4 4 6 2 0 0 0 0 0 0 0 0 0 0 0 0 0 0 0 0 1 1 1 0 0 0 0 0
5 2 3 3 2 2 2 1 2 1 0 0 0 1 2 4 2 0 0 0 0 0 0 0 0 0 0 0 0 0 0 0 0 0 0 0 0 0 0 0 0 0 0
3 3 2 1 1 1 1 1 2 0 0 0 1 1 2 1 0 0 0 0 0 0 0 0 0 0 0 0 0 0 0 0 0 0 0 0 0 0 0 0 0 0 0
CIN
-0 -0 -0 -0 -0 -0 -0 -0 -379 -360 -309 -286 -249 -217 -198 -152 -111 -70 -46 -23 -9 -39 -89 -54 -57 -69 -51 -58 -60 -63 -40 -25 -2 -30 -0 -0 -38 -15 -31 -23 -61 -3 -36
-0 -0 -0 -0 -0 -0 -0 -0 -408 -335 -312 -272 -223 -193 -148 -100 -64 -37 -15 -16 -29 -64 -65 -65 -54 -94 -86 -92 -78 -40 -10 -31 -5 -0 -0 -0 -0 -21 -2 -18 -57 -9 -3
-0 -0 -0 -0 -0 -0 -0 -0 -416 -351 -300 -246 -198 -160 -99 -50 -35 -32 -14 -34 -80 -78 -90 -73 -38 -52 -38 -37 -24 -8 -31 -19 -17 -0 -0 -1 -0 -2 -0 -16 -38 -30 -0
-0 -0 -198 -343 -178 -0 -160 -422 -380 -321 -273 -230 -160 -78 -37 -33 -32 -50 -55 -48 -22 -52 -67 -27 -43 -37 -20 -28 -22 -25 -32 -0 -11 -1 -1 -0 -1 -0 -0 -0 -6 -0 -0
-0 -114 -255 -279 -366 -360 -421 -361 -329 -279 -217 -148 -73 -18 -18 -30 -54 -26 -15 -11 -16 -23 -42 -29 -20 -19 -46 -19 -20 -36 -29 -17 -3 -0 -0 -0 -0 -0 -0 -0 -30 -0 -3
-16 -97 -101 -243 -356 -371 -367 -328 -238 -165 -121 -81 -31 -17 -18 -25 -100 -60 -41 -22 -21 -17 -14 -13 -20 -119 -2 -0 -0 -0 -25 -42 -0 -0 -82 -94 -53 -5 -56 -0 -0 -1 -0
-215 -62 -65 -199 -294 -326 -302 -223 -169 -153 -95 -32 -27 -32 -14 -142 -132 -97 -106 -43 -36 -18 -10 -12 -13 -20 -40 -10 -0 -0 -0 -0 -16 -8 -49 -0 -0 -0 -0 -0 -0 -0 -0
-196 -23 -90 -127 -165 -273 -200 -106 -72 -44 -18 -25 -30 -35 -96 -259 -380 -63 -0 -37 -25 -19 -19 -13 -3 -1 -11 -17 -41 -35 -48 -11 -28 -7 -3 -49 -11 -0 -21 -20 -6 -1 -0
-182 -15 -64 -98 -178 -179 -103 -74 -93 -102 -86 -86 -103 -114 -117 -62 -0 -0 -89 -29 -23 -32 -34 -9 -0 -6 -5 -41 -40 -23 -21 -37 -0 -0 -0 -25 -0 -4 -0 -0 -0 -0 -0
-5 -0 -15 -54 -124 -134 -123 -135 -133 -134 -146 -156 -173 -200 -0 -0 -0 -0 -99 -103 -84 -0 -0 -0 -0 -6 -0 -0 -61 -35 -55 -57 -95 -4 -0 -0 -0 -0 -0 -0 -1 -0 -0
-0 -0 -11 -42 -118 -176 -192 -253 -246 -273 -204 -0 -0 -0 -0 -0 -0 -0 -0 -49 -0 -0 -13 -35 -0 -0 -0 -0 -60 -64 -49 -0 -0 -20 -0 -0 -7 -0 -2 -4 -2 -0 -0
-0 -15 -80 -133 -211 -242 -270 -364 -0 -0 -0 -0 -0 -0 -0 -0 -0 -0 -0 -2 -0 -46 -100 -124 -0 -0 -0 -0 -91 -0 -0 -0 -0 -0 -0 -0 -0 -11 -3 -0 -0 -0 -2
-10 -54 -109 -161 -232 -0 -132 -0 -0 -0 -0 -0 -0 -0 -0 -0 -0 -0 -0 -0 -55 -70 -67 -11 -0 -0 -0 -0 -0 -0 -0 -0 -0 -0 -0 -0 -0 -14 -8 -5 -7 -18 -1
-33 -70 -87 -149 -198 -0 -0 -0 -0 -0 -0 -0 -0 -0 -0 -0 -0 -0 -0 -0 -0 -0 -0 -0 -0 -0 -0 -0 -0 -0 -7 -2 -0 -0 -0 -0 -12 -1 -7 -14 -0 -3 -0
-27 -47 -71 -147 -89 -0 -0 -59 -74 -78 -45 -0 -0 -0 -0 -0 -0 -0 -0 -0 -0 -0 -0 -10 -2 -0 -10 -8 -13 -12 -11 -5 -0 -0 -10 -7 -8 -6 -4 -2 -4 -6 -7
-14 -0 -0 -0 -0 -0 -62 -0 -0 -0 -0 -0 -0 -1 -0 -2 -0 -0 -0 -0 -0 -0 -0 -39 -2 -4 -0 -0 -10 -7 -11 -3 -3 -0 -0 -0 -0 -5 -1 -5 -0 -0 -3
-4 -0 -0 -0 -14 -69 -0 -0 -0 -0 -0 -0 -0 -0 -0 -0 -0 -0 -0 -0 -0 -0 -0 -0 -0 -0 -0 -0 -0 -0 -0 -0 -11 -0 -0 -0 -0 -0 -0 -0 -0 -0 -0
-0 -7 -18 -95 -104 -80 -58 -0 -0 -0 -0 -0 -0 -0 -0 -0 -0 -0 -0 -0 -0 -0 -0 -0 -0 -18 -2 -0 -0 -0 -0 -0 -0 -0 -0 -0 -0 -0 -0 -0 -0 -3 -3
-45 -80 -100 -84 -79 -81 -0 -0 -0 -0 -0 -0 -0 -0 -0 -0 -0 -0 -0 -33 -0 -0 -0 -0 -0 -0 -2 -0 -0 -0 -4 -0 -0 -0 -0 -0 -0 -0 -0 -0 -0 -0 -0
-65 -95 -83 -104 -74 -59 -0 -0 -0 -0 -0 -0 -0 -0 -0 -0 -0 -0 -0 -0 -9 -0 -0 -0 -0 -0 -4 -0 -0 -0 -0 -3 -4 -0 -0 -0 -0 -0 -0 -0 -29 -17 -27
-4 -94 -41 -10 -0 -0 -0 -0 -0 -0 -0 -0 -0 -0 -0 -0 -0 -0 -0 -0 -0 -0 -0 -0 -0 -0 -0 -8 -0 -0 -0 -0 -0 -0 -0 -0 -0 -0 -46 -44 -0 -1 -1
-0 -27 -0 -0 -0 -0 -0 -0 -0 -0 -0 -0 -0 -0 -0 -0 -0 -0 -0 -0 -0 -0 -0 -0 -0 -0 -0 -0 -0 -0 -8 -5 -44 -0 -68 -3 -9 -27 -2 -1 -2 -0 -2
-51 -0 -0 -0 -0 -0 -0 -0 -0 -0 -0 -0 -0 -0 -0 -0 -0 -0 -0 -0 -0 -0 -0 -0 -0 -0 -0 -0 -0 -0 -0 -0 -0 -58 -15 -11 -62 -19 -14 -16 -14 -43 -0
-7 -0 -0 -0 -0 -0 -0 -0 -0 -0 -0 -0 -0 -0 -0 -0 -0 -0 -0 -0 -0 -0 -0 -0 -0 -0 -0 -0 -0 -0 -0 -0 -0 -0 -0 -0 -0 -0 -0 -0 -0 -0 -0
-0 -0 -0 -0 -0 -0 -0 -0 -0 -0 -0 -0 -0 -0 -0 -0 -0 -0 -0 -0 -0 -0 -0 -0 -0 -0 -0 -0 -0 -0 -0 -0 -0 -0 -0 -0 -0 -0 -0 -0 -0 -0 -0
-0 -0 -0 -0 -0 -0 -0 -0 -0 -0 -0 -0 -0 -0 -0 -0 -0 -0 -0 -0 -0 -0 -0 -0 -0 -0 -0 -0 -0 -0 -0 -0 -0 -0 -0 -0 -0 -0 -0 -0 -0 -0 -0
Wind_Speed
44 43 41 40 36 32 29 27 25 23 21 20 18 17 16 14 12 10 9 8 9 8 6 5 5 7 7 8 9 9 10 11 11 13 14 12 13 12 16 14 11 13 10
44 44 42 38 35 31 29 28 25 22 19 17 16 15 13 11 9 8 8 9 7 6 5 4 6 7 7 8 8 9 9 11 10 10 12 10 11 12 13 10 7 10 9
45 45 44 41 35 31 30 27 24 21 17 15 13 13 10 9 8 7 7 6 6 5 3 4 5 5 7 7 7 8 10 9 9 10 10 9 10 9 7 6 3 5 10
44 45 46 43 36 30 26 22 18 16 13 13 13 11 10 8 7 7 6 5 4 3 2 4 4 5 5 5 7 7 8 8 9 9 9 6 7 8 6 4 5 6 6
44 45 45 41 33 28 23 18 15 13 11 9 9 10 9 8 7 5 3 3 3 3 3 5 5 4 4 5 5 6 6 8 9 8 8 7 4 5 4 7 4 4 6
43 44 41 35 27 22 17 14 12 10 9 8 8 9 8 8 4 2 2 2 3 3 5 4 4 4 4 3 3 4 4 5 8 7 7 7 4 4 6 2 2 5 3
41 41 35 29 23 18 15 13 11 9 7 7 7 7 6 4 3 2 1 4 4 5 4 3 4 6 5 4 4 3 4 7 8 6 8 9 4 6 11 9 3 3 4
38 35 30 26 22 16 14 11 9 7 7 6 6 5 4 2 2 1 2 5 6 6 5 6 6 4 2 2 2 2 5 7 9 10 7 9 6 10 9 4 3 5 5
38 30 28 24 20 16 13 11 8 7 7 7 6 4 2 2 2 0 2 5 6 7 8 7 6 5 3 2 1 0 4 9 11 10 8 6 6 6 3 3 5 5 4
36 30 26 22 19 16 13 11 10 9 9 6 3 2 2 1 2 2 3 6 7 7 8 8 8 5 4 4 2 1 4 6 7 6 5 6 5 6 11 6 5 4 4
34 27 24 20 16 14 13 12 13 10 7 4 1 2 2 3 3 3 4 6 6 6 6 8 8 6 5 7 0 11 9 5 8 6 5 5 4 3 5 4 6 8 5
31 24 20 18 15 13 15 15 12 9 6 3 2 1 4 3 4 4 6 7 5 6 6 7 6 8 7 7 5 2 1 5 7 7 6 4 3 3 4 4 3 11 15
24 20 18 16 15 16 17 14 10 7 5 3 2 1 2 4 5 6 6 6 7 6 6 6 7 7 7 6 10 10 4 7 9 8 6 6 4 5 6 6 8 10 11
20 17 16 17 18 15 12 12 8 6 4 3 1 0 2 4 4 5 6 7 8 6 7 7 5 4 4 6 5 4 9 9 6 4 4 4 5 5 6 9 8 5 8
18 18 17 17 14 11 10 9 6 5 3 3 2 4 4 3 4 4 6 6 5 5 6 4 3 4 3 3 5 8 9 7 6 5 4 4 6 7 10 10 10 8 10
20 18 16 14 14 12 10 7 3 2 3 3 3 4 3 5 6 7 7 7 8 5 4 2 2 2 2 4 7 9 12 14 13 11 8 6 6 6 6 7 8 8 8
19 21 19 16 14 12 9 8 7 2 6 4 5 6 5 6 7 7 9 9 5 3 4 4 2 8 6 7 10 12 13 12 8 8 7 6 7 9 7 6 6 9 13
22 20 17 15 13 10 8 8 8 8 6 1 3 4 6 7 9 10 8 3 7 9 7 6 9 15 18 15 14 13 10 8 9 9 7 7 8 7 7 7 10 10 9
20 18 16 13 10 9 9 9 6 6 6 5 1 1 5 8 8 8 3 4 6 3 10 13 13 9 11 12 15 10 9 7 7 12 11 9 7 7 9 9 10 9 8
17 14 11 10 9 9 9 8 8 6 5 2 3 2 2 9 6 4 7 10 11 6 11 12 10 11 11 12 12 11 10 10 8 9 8 7 7 8 10 10 9 9 8
12 11 11 9 10 9 10 10 9 6 5 4 4 4 2 4 3 3 3 1 3 4 7 8 9 10 10 10 11 11 11 9 8 7 7 8 9 9 11 13 10 12 17
12 12 12 10 11 14 12 10 9 6 9 10 6 4 7 5 5 6 4 1 1 2 4 3 4 5 6 7 8 7 6 8 9 9 9 11 12 13 10 16 16 19 18
14 14 15 15 16 11 10 10 8 9 10 10 7 5 4 5 5 5 4 2 2 4 3 4 4 4 5 6 7 7 7 7 9 9 9 11 12 13 15 15 16 16 18
11 13 14 12 11 10 9 9 8 9 10 11 8 5 4 4 3 2 4 4 5 7 7 8 7 7 7 7 6 7 8 10 11 12 12 12 13 14 15 16 18 17 18
7 9 10 11 10 10 10 9 9 10 9 8 6 5 4 4 5 5 6 7 7 9 8 8 9 10 12 13 13 13 13 13 13 14 14 14 15 15 16 18 19 19 20
9 9 8 9 9 9 10 9 8 9 9 7 5 4 5 5 7 7 7 8 9 10 10 11 12 13 13 14 15 16 17 16 16 16 16 17 17 17 18 19 20 21 22
Wind_Direction
266 265 265 266 268 267 267 270 270 273 270 271 274 281 282 284 290 289 288 291 296 306 314 315 323 334 338 342 345 349 348 347 351 355 353 355 344 337 303 290 295 277 275
265 263 262 264 266 265 264 266 269 268 266 268 272 274 275 278 280 276 279 289 291 303 308 318 328 339 341 346 347 348 351 349 5 8 5 6 2 355 308 286 297 270 273
264 261 259 259 262 262 263 265 262 262 263 262 262 264 264 268 269 273 279 284 294 301 308 322 334 337 337 343 349 349 353 3 10 18 15 16 5 326 340 303 341 298 270
262 259 254 254 257 258 261 258 254 254 254 258 260 259 261 261 263 271 283 283 295 308 324 329 334 337 346 352 347 349 357 7 3 26 38 51 352 318 324 321 339 303 285
260 256 251 250 253 253 253 250 252 252 253 252 252 257 260 260 262 261 260 276 308 323 323 326 331 343 351 357 2 6 16 343 343 51 54 57 9 60 330 289 351 5 293
259 251 247 244 243 242 238 242 242 245 248 252 250 246 248 254 233 225 269 310 327 325 321 328 337 349 345 4 22 49 47 10 343 353 53 84 357 2 82 40 13 67 347
255 246 239 234 229 226 228 231 238 245 243 242 232 228 231 229 175 168 335 328 338 337 347 350 339 328 330 333 349 37 345 335 332 3 74 91 19 88 102 104 69 55 19
249 238 229 223 218 216 217 225 231 227 217 205 210 203 180 202 184 228 330 336 338 348 346 335 327 331 337 345 328 327 306 321 312 306 332 76 56 102 100 69 39 333 324
240 231 222 213 208 208 213 215 217 200 194 185 176 170 183 258 277 314 346 332 341 348 340 339 346 348 9 109 278 276 296 295 287 303 320 14 28 77 56 45 66 69 344
231 224 214 208 208 207 207 205 194 167 155 159 186 232 270 297 319 5 336 333 344 349 346 349 339 352 87 106 250 227 286 292 285 316 349 358 4 71 106 78 66 61 343
223 214 210 211 203 200 189 181 164 159 161 171 191 280 303 312 352 351 342 342 350 358 8 1 352 44 67 98 92 262 273 285 279 295 327 359 348 4 37 344 79 88 77
213 209 205 203 197 183 165 169 164 166 163 175 152 300 311 342 333 344 343 338 5 7 9 9 32 65 64 81 79 44 301 279 285 289 304 334 347 13 20 34 19 290 276
202 201 197 190 175 162 159 169 171 176 177 183 231 283 316 336 337 351 5 13 2 20 31 55 67 63 62 52 83 89 54 287 285 292 296 298 318 318 318 313 302 299 298
191 183 174 159 160 160 173 188 182 194 200 215 226 304 32 24 358 16 19 21 32 46 70 64 44 19 8 67 69 346 288 295 332 336 322 328 329 323 314 301 307 339 327
176 174 167 166 163 169 184 199 188 213 201 115 95 83 80 41 18 12 28 39 40 73 73 41 30 47 34 318 300 282 291 333 337 309 33 13 334 315 300 300 304 318 315
167 171 167 162 174 172 170 174 205 132 77 57 53 68 330 44 51 37 39 57 88 89 297 22 10 49 39 296 279 282 272 260 258 266 296 326 339 355 351 332 318 313 318
174 180 178 174 177 176 166 146 143 115 70 49 45 49 46 56 54 49 66 72 56 277 253 278 22 254 272 277 267 268 266 271 291 302 323 343 336 311 343 25 19 323 304
176 177 174 174 175 169 155 146 126 109 97 26 340 41 52 49 56 65 62 8 258 246 247 247 246 232 223 235 248 258 276 288 290 306 342 334 326 346 9 50 106 98 335
169 174 172 173 169 146 141 130 140 125 96 85 93 304 40 51 45 46 303 259 235 237 226 224 232 250 244 247 240 273 284 311 325 289 303 329 351 348 349 344 342 348 5
171 161 158 157 152 142 150 147 153 148 101 137 200 83 226 217 218 230 220 212 210 226 225 227 240 240 247 254 261 279 291 296 311 318 338 339 342 344 354 343 6 14 17
155 151 133 155 168 167 174 174 172 149 104 104 113 191 188 105 102 78 68 170 203 221 224 225 233 239 244 255 260 265 266 295 306 337 354 356 343 27 60 102 7 332 297
165 178 183 175 179 189 187 181 172 138 109 105 132 114 93 84 68 60 59 84 221 238 231 258 269 260 262 262 264 270 356 2 5 20 30 49 65 82 25 305 313 305 317
184 186 188 187 190 172 176 173 162 121 115 115 125 126 111 76 58 55 50 44 16 16 355 3 355 331 311 297 295 301 331 325 305 295 345 346 333 337 336 338 335 337 333
175 182 183 176 174 170 161 145 140 128 124 120 127 111 99 72 80 52 44 44 33 35 34 35 27 16 8 355 338 332 337 349 352 353 2 4 1 357 356 351 350 343 342
146 156 166 171 170 165 151 140 127 124 132 133 137 114 95 74 62 54 49 44 43 42 34 29 24 24 25 26 22 20 17 12 8 7 6 8 6 0 355 356 354 351 348
127 132 146 156 151 137 130 138 141 134 135 143 140 125 95 78 68 63 57 55 52 49 46 41 40 35 30 28 26 25 24 24 21 17 14 10 7 6 360 356 355 350 348